Regional Weather Roundup
Issued by NWS

Home | Current Version | Previous Version | Graphics & Text | Print | Product List | Glossary On
Versions: 1 2 3 4 5 6 7 8 9 10 11 12 13 14 15 16 17 18 19 20 21 22 23 24 25 26 27 28 29 30 31 32 33 34 35 36 37 38 39 40 41 42 43 44 45 46 47 48 49 50
109
ASUS43 KLSX 220407
RWRMO

WEATHER SUMMARY FOR MISSOURI
NATIONAL WEATHER SERVICE SPRINGFIELD MO
1000 PM CST SAT JAN 21 2017

NOTE: "FAIR" INDICATES FEW OR NO CLOUDS BELOW 12,000 FEET WITH NO
       SIGNIFICANT WEATHER AND/OR OBSTRUCTIONS TO VISIBILITY.
       CURRENT SKY AND/OR WEATHER CONDITIONS ARE NOT AVAILABLE FOR
       CHILLICOTHE AND FARMINGTON.

MOZ001>031-035>038-043-044-053-054-220500-
...NORTHERN AND WESTERN MISSOURI...

CITY           SKY/WX    TMP DP  RH WIND       PRES   REMARKS
KANSAS CTY INT CLOUDY    47  42  83 NE5       29.52R
KANSAS C DTWN  CLOUDY    48  45  89 NE5       29.52S
LEE`S SUMMIT   LGT RAIN  47  44  90 E8        29.52S
ST JOSEPH      CLOUDY    41  40  96 N6        29.54S
CHILLICOTHE      N/A     43  41  93 CALM      29.55S
KIRKSVILLE     CLOUDY    38  38 100 N6        29.54F FOG

$$
MOZ066>068-077>081-088>096-101>105-220500-
...SOUTHWEST MISSOURI...

CITY           SKY/WX    TMP DP  RH WIND       PRES   REMARKS
SPRINGFIELD    CLOUDY    54  49  83 E13       29.46F
JOPLIN         CLOUDY    53  47  79 NE5       29.44F
BRANSON        CLOUDY    50  48  93 E9        29.47F

$$
MOZ032>034-039>042-045>050-055>058-069>072-220500-
...CENTRAL MISSOURI...

CITY           SKY/WX    TMP DP  RH WIND       PRES   REMARKS
COLUMBIA       MOCLDY    52  41  66 NE9       29.52F
JEFFERSON CITY CLOUDY    50  40  68 CALM      29.52F
ROLLA          CLOUDY    55  38  52 E7        29.51F
SEDALIA        CLOUDY    51  42  71 NE3       29.53S
WHITEMAN AFB   MOCLDY    48  48 100 N6        29.52R
WARRENSBURG    DRIZZLE   46  43  87 NE5       29.53S
OSAGE BEACH    CLOUDY    56  37  49 NE8       29.50F

$$
MOZ051-052-059>065-220500-
...EAST CENTRAL MISSOURI...

CITY           SKY/WX    TMP DP  RH WIND       PRES   REMARKS
ST LOUIS INTL  CLOUDY    55  40  56 CALM      29.56S
SPIRIT OF STL  CLOUDY    48  43  82 CALM      29.55S
ST CHARLES     CLOUDY    51  44  77 N5        29.56R

$$
MOZ072>076-082>087-097>100-106>115-220500-
...SOUTH CENTRAL AND SOUTHEAST MISSOURI...

CITY           SKY/WX    TMP DP  RH WIND       PRES   REMARKS
CAPE GIRARDEAU CLOUDY    55  52  89 CALM      29.55S
FARMINGTON     CLOUDY    56  53  90 E6        29.55F
POPLAR BLUFF   CLOUDY    52  51  97 CALM      29.53F
WEST PLAINS    CLOUDY    58  55  90 SE6       29.53S

$$



USA.gov is the U.S. government's official web portal to all federal, state and local government web resources and services.